Total_Precipitation_Accumulation
0.06 0.09 0.21 0.22 0.14 0.16 0.31 0.22 0.18 0.08 0.09 0.11 0.11 0.13 0.17 0.18 0.15 0.11 0.09 0.07 0.06 0.06 0.06 0.08 0.11 0.14 0.16 0.17 0.20 0.23 0.22 0.20 0.18 0.19 0.20 0.22 0.20 0.19 0.17 0.15 0.17 0.21 0.25 0.30
0.07 0.07 0.12 0.15 0.09 0.08 0.09 0.06 0.06 0.05 0.06 0.06 0.09 0.14 0.17 0.16 0.12 0.09 0.07 0.05 0.04 0.03 0.03 0.04 0.08 0.15 0.20 0.24 0.24 0.22 0.20 0.18 0.17 0.18 0.19 0.20 0.17 0.14 0.12 0.11 0.12 0.14 0.18 0.22
0.09 0.03 0.11 0.14 0.08 0.07 0.05 0.03 0.04 0.06 0.05 0.07 0.14 0.20 0.22 0.16 0.09 0.06 0.04 0.03 0.02 0.01 0.02 0.04 0.11 0.24 0.37 0.43 0.39 0.31 0.27 0.23 0.20 0.20 0.20 0.21 0.20 0.20 0.18 0.18 0.18 0.19 0.20 0.22
0.12 0.08 0.18 0.12 0.06 0.03 0.02 0.03 0.04 0.05 0.05 0.08 0.11 0.16 0.16 0.09 0.04 0.03 0.02 0.02 0.01 0.01 0.03 0.06 0.14 0.27 0.37 0.45 0.48 0.43 0.39 0.37 0.34 0.34 0.36 0.39 0.40 0.40 0.38 0.37 0.36 0.36 0.36 0.37
0.15 0.12 0.07 0.04 0.03 0.03 0.03 0.03 0.04 0.04 0.03 0.03 0.05 0.09 0.10 0.06 0.03 0.02 0.02 0.01 0.01 0.01 0.03 0.07 0.14 0.22 0.32 0.42 0.47 0.51 0.57 0.61 0.60 0.59 0.62 0.66 0.71 0.72 0.68 0.65 0.63 0.62 0.62 0.60
0.18 0.13 0.03 0.02 0.01 0.02 0.03 0.06 0.02 0.03 0.02 0.01 0.02 0.07 0.09 0.07 0.06 0.04 0.03 0.03 0.03 0.03 0.05 0.10 0.17 0.28 0.45 0.56 0.62 0.65 0.71 0.76 0.73 0.72 0.73 0.73 0.74 0.74 0.70 0.64 0.61 0.58 0.56 0.51
0.17 0.13 0.02 0.01 0.01 0.01 0.03 0.05 0.01 0.02 0.03 0.03 0.04 0.05 0.04 0.06 0.09 0.10 0.10 0.10 0.12 0.14 0.18 0.26 0.34 0.48 0.71 0.82 0.77 0.71 0.70 0.66 0.60 0.56 0.51 0.48 0.46 0.43 0.41 0.37 0.34 0.31 0.28 0.24
0.07 0.08 0.03 0.01 0.01 0.02 0.02 0.01 0.01 0.02 0.03 0.05 0.03 0.03 0.03 0.04 0.07 0.12 0.15 0.16 0.19 0.24 0.30 0.36 0.40 0.46 0.56 0.59 0.54 0.48 0.43 0.36 0.30 0.28 0.25 0.23 0.21 0.20 0.18 0.16 0.14 0.12 0.09 0.07
0.03 0.04 0.02 0.01 0.01 0.01 0.01 0.01 0.01 0.03 0.04 0.04 0.03 0.02 0.03 0.04 0.04 0.06 0.08 0.09 0.10 0.11 0.13 0.16 0.17 0.19 0.21 0.19 0.16 0.14 0.13 0.10 0.08 0.08 0.08 0.07 0.07 0.06 0.05 0.04 0.03 0.03 0.03 0.03
0.03 0.02 0.02 0.01 0.01 0.01 0.01 0.01 0.01 0.03 0.03 0.03 0.04 0.03 0.03 0.03 0.03 0.04 0.04 0.04 0.04 0.05 0.04 0.04 0.05 0.05 0.05 0.04 0.04 0.04 0.04 0.04 0.03 0.03 0.03 0.04 0.04 0.04 0.04 0.04 0.04 0.04 0.05 0.05
0.04 0.02 0.02 0.01 0.01 0.01 0.01 0.01 0.01 0.01 0.02 0.02 0.03 0.04 0.04 0.04 0.04 0.04 0.04 0.04 0.04 0.04 0.04 0.04 0.04 0.04 0.04 0.04 0.04 0.04 0.04 0.05 0.05 0.05 0.05 0.06 0.06 0.07 0.08 0.07 0.08 0.09 0.09 0.10
0.04 0.02 0.01 0.01 0.00 0.01 0.01 0.01 0.01 0.01 0.01 0.02 0.02 0.02 0.03 0.03 0.03 0.03 0.04 0.04 0.05 0.05 0.05 0.05 0.05 0.06 0.06 0.06 0.07 0.07 0.07 0.08 0.09 0.10 0.10 0.10 0.11 0.11 0.13 0.13 0.14 0.15 0.15 0.15
0.03 0.01 0.01 0.01 0.01 0.01 0.01 0.01 0.01 0.01 0.01 0.01 0.02 0.02 0.03 0.02 0.02 0.02 0.03 0.03 0.04 0.04 0.05 0.06 0.06 0.06 0.07 0.09 0.10 0.12 0.13 0.15 0.16 0.16 0.17 0.17 0.17 0.17 0.17 0.18 0.20 0.20 0.18 0.18
0.03 0.03 0.03 0.02 0.02 0.02 0.01 0.01 0.01 0.01 0.01 0.01 0.01 0.02 0.02 0.02 0.02 0.03 0.04 0.04 0.03 0.04 0.05 0.05 0.06 0.06 0.07 0.08 0.09 0.10 0.11 0.14 0.16 0.15 0.17 0.18 0.19 0.20 0.21 0.20 0.19 0.18 0.18 0.20
0.06 0.05 0.05 0.04 0.04 0.03 0.02 0.02 0.02 0.01 0.02 0.02 0.02 0.02 0.02 0.02 0.03 0.03 0.03 0.03 0.03 0.03 0.04 0.04 0.05 0.06 0.07 0.08 0.09 0.10 0.12 0.13 0.16 0.18 0.19 0.20 0.21 0.21 0.21 0.20 0.19 0.17 0.17 0.20
0.12 0.09 0.07 0.07 0.07 0.06 0.06 0.06 0.05 0.04 0.03 0.03 0.02 0.02 0.02 0.02 0.02 0.03 0.03 0.03 0.04 0.05 0.05 0.05 0.06 0.07 0.09 0.11 0.12 0.13 0.13 0.19 0.23 0.23 0.23 0.23 0.23 0.24 0.24 0.23 0.22 0.21 0.19 0.21
0.20 0.19 0.16 0.13 0.11 0.11 0.11 0.10 0.09 0.07 0.06 0.05 0.05 0.04 0.04 0.04 0.03 0.03 0.03 0.04 0.04 0.05 0.05 0.06 0.06 0.07 0.09 0.11 0.13 0.14 0.14 0.18 0.25 0.25 0.21 0.22 0.24 0.26 0.26 0.27 0.26 0.23 0.21 0.26
0.19 0.18 0.18 0.19 0.17 0.16 0.17 0.16 0.14 0.13 0.11 0.10 0.09 0.08 0.07 0.06 0.06 0.05 0.04 0.04 0.04 0.04 0.04 0.05 0.06 0.07 0.08 0.10 0.13 0.14 0.15 0.16 0.19 0.21 0.21 0.24 0.28 0.30 0.31 0.30 0.27 0.25 0.23 0.28
0.17 0.17 0.16 0.17 0.17 0.17 0.17 0.18 0.18 0.17 0.15 0.13 0.12 0.11 0.10 0.09 0.08 0.07 0.07 0.08 0.08 0.08 0.07 0.07 0.09 0.09 0.08 0.10 0.15 0.16 0.18 0.19 0.20 0.20 0.22 0.26 0.29 0.27 0.27 0.28 0.27 0.26 0.26 0.27
0.16 0.16 0.16 0.15 0.15 0.15 0.15 0.16 0.15 0.14 0.13 0.12 0.12 0.12 0.11 0.11 0.10 0.09 0.10 0.10 0.11 0.12 0.11 0.11 0.11 0.10 0.10 0.11 0.17 0.17 0.18 0.20 0.21 0.22 0.23 0.25 0.25 0.24 0.24 0.26 0.27 0.28 0.28 0.27
0.19 0.18 0.19 0.20 0.21 0.20 0.19 0.18 0.17 0.16 0.15 0.15 0.15 0.14 0.13 0.11 0.11 0.11 0.12 0.11 0.09 0.09 0.10 0.12 0.12 0.13 0.15 0.20 0.23 0.20 0.20 0.22 0.24 0.25 0.26 0.27 0.27 0.27 0.26 0.27 0.28 0.29 0.28 0.27
0.17 0.19 0.20 0.21 0.23 0.25 0.25 0.22 0.19 0.19 0.19 0.20 0.19 0.16 0.14 0.12 0.10 0.10 0.10 0.11 0.10 0.11 0.12 0.11 0.12 0.17 0.23 0.26 0.22 0.20 0.22 0.24 0.25 0.27 0.28 0.28 0.28 0.29 0.28 0.28 0.29 0.29 0.29 0.30
0.09 0.11 0.13 0.15 0.16 0.17 0.18 0.18 0.18 0.19 0.21 0.23 0.22 0.20 0.18 0.16 0.15 0.15 0.14 0.11 0.11 0.13 0.14 0.13 0.15 0.19 0.22 0.21 0.20 0.21 0.22 0.25 0.26 0.26 0.26 0.26 0.27 0.28 0.28 0.28 0.28 0.28 0.29 0.30
0.07 0.07 0.07 0.08 0.09 0.10 0.11 0.12 0.13 0.15 0.17 0.18 0.18 0.17 0.17 0.17 0.16 0.16 0.16 0.15 0.15 0.16 0.15 0.15 0.17 0.19 0.20 0.19 0.19 0.21 0.22 0.24 0.24 0.25 0.25 0.25 0.25 0.26 0.27 0.26 0.26 0.26 0.26 0.27
0.07 0.05 0.05 0.05 0.05 0.05 0.06 0.07 0.09 0.10 0.12 0.12 0.12 0.12 0.13 0.15 0.17 0.15 0.13 0.12 0.13 0.15 0.14 0.14 0.15 0.17 0.18 0.18 0.19 0.20 0.21 0.22 0.25 0.27 0.26 0.25 0.24 0.25 0.24 0.24 0.24 0.24 0.23 0.23
0.06 0.05 0.05 0.04 0.04 0.04 0.04 0.05 0.05 0.06 0.08 0.10 0.10 0.11 0.11 0.12 0.13 0.12 0.12 0.11 0.12 0.14 0.13 0.13 0.14 0.16 0.17 0.18 0.19 0.20 0.20 0.20 0.21 0.22 0.23 0.23 0.23 0.23 0.22 0.22 0.22 0.22 0.22 0.22
0.04 0.04 0.04 0.03 0.03 0.03 0.04 0.04 0.05 0.05 0.06 0.08 0.08 0.09 0.10 0.12 0.12 0.12 0.13 0.13 0.13 0.13 0.13 0.13 0.14 0.16 0.17 0.18 0.18 0.18 0.18 0.19 0.20 0.21 0.21 0.22 0.22 0.22 0.22 0.22 0.21 0.22 0.22 0.23